Theta_e
346 347 348 348 347 347 345 344 344 342 342 341 340 340 341 340 339 338 338 339 337 337 341 339 336 335 334 331 325 315 311 312 313 314 315 318 323 326 325 324 323 324 326 323 318 316 318 321 325 328 329 331 330 331 331 331 334 335 337 336 333 333
345 346 347 347 347 347 345 345 344 344 343 342 342 341 341 340 340 340 339 338 336 338 340 340 339 335 332 331 324 314 310 311 312 314 315 316 319 321 321 318 319 324 326 321 317 317 323 328 329 329 330 331 331 331 331 332 333 334 336 336 332 333
345 345 345 346 347 346 345 345 345 344 344 343 343 342 342 340 341 340 339 337 337 340 340 341 341 333 326 326 320 314 312 312 313 313 314 315 316 317 317 316 319 325 325 319 318 322 329 334 332 329 328 330 331 331 332 332 331 332 336 336 333 332
345 344 344 346 346 346 345 345 345 344 344 344 342 342 342 341 341 340 340 337 337 341 340 340 341 333 329 325 319 316 315 315 314 314 314 315 315 315 316 318 323 326 324 319 321 328 331 333 333 330 329 329 331 331 332 332 330 333 336 334 332 332
344 343 344 346 346 346 345 345 345 344 344 343 342 342 342 342 342 341 341 338 337 340 338 339 339 337 335 328 321 319 318 318 316 316 316 317 318 318 320 322 327 325 321 320 324 330 330 330 331 330 329 329 331 331 332 331 330 333 335 333 331 332
344 343 344 345 345 346 345 344 345 345 344 343 341 343 343 342 342 341 340 338 339 339 335 339 339 338 338 334 328 320 319 321 317 320 318 321 325 323 325 326 329 326 319 324 329 331 330 327 328 327 327 328 330 331 330 330 330 333 334 333 332 331
345 344 344 345 345 345 344 344 345 344 344 344 341 343 344 342 343 341 338 338 341 339 335 338 337 337 338 338 335 323 320 324 322 326 322 323 333 331 329 328 330 330 324 327 331 331 329 326 326 325 326 327 328 330 330 329 331 334 335 335 333 332
345 345 344 344 346 345 343 343 344 344 344 344 343 343 344 342 343 340 337 340 341 338 336 338 336 335 337 336 337 329 325 329 328 333 327 323 334 336 332 329 329 332 330 331 331 330 328 326 326 325 325 328 328 329 331 331 331 334 335 336 335 333
345 345 344 345 346 344 343 343 343 344 343 344 343 343 344 343 343 340 338 342 342 338 337 340 335 331 336 334 335 332 329 332 330 334 332 326 334 337 334 331 329 332 333 332 330 328 326 325 325 324 325 328 329 329 331 331 331 333 335 336 337 337
345 345 344 345 346 343 342 343 342 343 343 344 343 343 343 343 343 340 340 343 343 340 339 342 335 328 335 333 332 333 330 333 331 333 336 331 333 336 335 334 332 332 331 328 327 325 325 325 323 323 324 327 329 329 331 332 331 333 335 336 338 338
345 345 344 344 346 343 341 342 341 342 342 342 343 343 344 344 344 342 341 343 342 341 340 342 336 329 333 333 332 332 329 332 332 332 336 333 332 335 336 334 331 329 328 327 327 325 325 324 323 323 324 326 329 330 331 330 330 333 336 338 340 339
345 345 344 344 345 343 341 342 341 342 342 341 343 344 344 344 344 343 342 342 341 340 340 343 338 329 332 334 333 332 329 331 333 333 336 335 332 334 334 331 329 328 327 329 330 327 325 325 324 323 324 325 327 330 331 330 330 333 335 338 339 338
344 343 344 345 345 343 342 342 341 342 342 342 344 344 344 344 344 343 342 342 342 340 340 343 338 329 332 335 334 333 331 333 336 335 337 337 334 334 334 331 330 330 330 331 330 326 323 324 324 324 324 324 326 330 332 331 329 332 335 336 336 335
342 341 342 344 345 344 344 343 341 342 343 343 344 344 344 344 344 344 343 342 342 341 341 343 339 330 333 336 335 336 335 337 340 337 338 339 336 335 334 333 332 333 332 329 327 324 323 324 324 325 326 327 330 331 333 333 329 331 334 334 335 334
343 342 343 344 346 344 343 344 342 342 343 344 344 344 343 343 344 344 343 342 342 342 341 343 339 331 334 336 336 339 339 339 340 339 339 338 338 338 334 332 332 332 331 328 325 325 324 324 326 326 327 331 334 333 333 332 330 331 333 334 335 335
343 343 343 344 345 344 344 344 342 342 344 344 344 344 343 343 344 344 344 343 341 341 341 342 340 336 338 338 339 341 339 339 339 339 341 339 338 340 336 332 331 330 329 329 328 327 325 324 327 327 327 332 334 333 333 333 332 333 334 335 335 335
344 343 343 342 342 342 343 344 342 342 344 344 344 344 343 343 344 345 345 343 341 341 341 342 342 340 342 340 339 339 337 338 339 340 343 341 338 336 333 331 330 331 330 329 330 329 327 325 328 331 330 333 334 333 334 334 336 336 336 336 335 335
342 340 340 340 340 340 341 342 342 343 344 343 343 344 343 343 344 345 345 342 340 341 340 341 342 340 341 340 339 339 338 339 339 341 342 341 340 332 329 332 332 333 333 330 329 327 326 329 332 334 333 335 335 335 336 337 338 339 338 337 336 336
336 336 339 339 338 340 341 340 340 342 343 343 343 343 343 343 343 344 344 342 339 341 340 340 342 340 339 340 341 340 339 339 340 342 340 339 340 332 328 335 335 335 335 330 328 326 326 331 334 335 336 337 337 337 339 339 340 340 339 338 337 336
334 337 341 338 335 336 339 340 338 339 342 343 342 343 342 342 342 342 343 342 340 340 340 340 341 341 340 340 341 341 339 339 341 341 337 338 340 332 329 337 338 337 336 330 328 329 328 332 335 335 336 336 337 338 339 340 341 342 340 339 337 336
339 339 340 337 336 335 336 338 338 338 342 343 342 343 343 341 341 342 342 342 341 340 340 340 340 340 340 340 342 341 339 341 341 338 337 338 337 332 330 338 339 337 337 334 333 333 331 335 337 337 338 338 338 339 340 342 342 342 341 340 337 337
342 340 340 339 340 339 338 340 340 340 342 343 342 342 342 342 340 341 342 342 341 340 340 341 340 340 340 340 342 342 341 342 340 338 340 338 335 334 335 339 339 338 340 340 338 336 332 336 340 340 341 342 342 341 341 342 343 343 342 341 338 337
342 340 340 340 339 338 340 341 340 341 343 343 343 341 341 342 340 341 341 342 342 340 340 341 340 339 339 340 341 343 344 341 338 340 341 337 335 337 340 341 339 338 343 343 340 339 335 337 341 340 341 346 347 347 346 345 344 343 343 341 339 336
342 341 340 340 338 338 339 339 340 342 343 343 343 342 341 341 341 341 341 342 342 341 341 341 340 339 339 340 340 343 345 341 339 341 340 337 337 340 342 341 339 339 342 342 341 341 340 340 341 342 344 347 346 346 349 348 344 343 343 342 340 336
342 342 341 340 339 339 339 338 340 340 339 339 340 341 342 341 341 341 341 343 342 341 341 341 340 340 339 339 340 343 345 342 339 341 340 338 339 342 344 341 339 341 342 341 341 340 341 342 342 342 344 346 346 348 351 347 343 345 344 342 342 339
342 343 342 340 338 339 340 339 340 339 338 336 336 340 342 341 341 341 341 342 341 340 341 341 341 340 339 340 341 342 345 344 341 342 342 341 341 342 345 343 341 343 342 342 341 341 343 343 343 344 343 344 346 347 347 345 344 347 346 342 342 342
341 343 342 341 339 340 339 336 337 337 337 337 335 338 341 341 341 341 340 341 341 341 341 341 341 341 340 339 341 343 346 345 343 344 343 343 343 342 343 343 342 341 341 340 340 340 343 344 343 344 344 344 344 343 343 344 345 346 347 345 343 342
341 342 342 340 339 340 339 334 334 335 336 337 337 336 338 341 342 341 341 341 341 341 341 341 341 340 340 339 339 344 347 345 343 344 344 344 344 343 342 343 342 341 341 341 341 339 341 344 344 344 343 343 343 343 342 343 343 343 345 347 346 344
343 342 342 341 340 340 339 336 334 335 336 337 339 338 337 338 341 342 342 341 340 341 341 341 340 340 341 339 340 343 346 346 344 344 343 343 344 343 342 342 342 342 342 343 343 342 341 342 344 344 343 343 342 342 342 342 342 341 343 345 347 347
346 344 342 342 341 340 339 336 335 336 337 337 338 338 337 336 339 342 342 341 341 341 341 341 340 340 341 341 342 343 346 346 345 345 343 343 344 344 343 342 342 343 343 344 343 343 342 343 343 343 342 342 342 342 343 342 342 341 343 344 345 347
347 346 343 342 341 340 339 337 336 336 337 338 338 337 337 337 339 342 343 342 341 341 341 341 341 340 341 343 343 343 345 346 346 345 343 343 344 345 344 344 344 344 344 344 343 343 343 343 344 343 342 342 341 342 342 343 342 341 343 345 345 347
345 347 344 343 342 340 339 337 337 337 337 338 338 337 337 340 341 343 343 342 341 342 342 341 341 341 342 343 343 343 345 346 346 345 343 343 343 344 344 344 345 345 344 344 345 345 344 344 344 344 344 342 341 341 341 341 340 340 342 343 344 346
342 347 345 343 342 340 339 338 337 338 338 338 338 338 339 342 343 342 342 342 342 343 343 342 342 343 343 344 344 344 345 346 347 345 343 343 343 343 344 344 344 345 345 345 345 345 345 345 345 344 344 343 342 341 341 341 340 340 342 342 343 346
340 347 346 343 342 340 340 339 337 336 337 338 339 340 341 342 343 343 343 343 343 343 343 343 343 343 344 344 344 344 345 345 346 345 344 343 343 344 344 344 344 345 346 346 345 345 344 345 345 344 344 343 342 342 341 341 341 340 342 342 343 345
337 346 346 343 342 341 339 339 337 336 336 338 340 341 342 342 343 343 343 343 344 344 344 344 343 344 344 344 344 345 345 345 345 345 345 345 344 344 344 344 344 345 345 345 344 344 343 344 344 344 344 343 342 342 341 341 341 342 342 343 343 343
336 345 345 343 342 341 340 339 337 337 337 338 340 342 343 343 343 344 343 343 344 344 344 344 344 344 344 344 344 346 345 345 345 345 346 345 344 343 343 343 344 345 344 344 343 342 342 342 343 343 343 343 343 342 342 342 342 343 343 343 344 343
338 344 343 342 342 340 340 339 337 337 338 338 340 342 343 344 343 344 344 344 344 345 345 344 344 345 344 343 344 346 345 345 346 346 346 345 344 343 342 343 343 344 344 343 342 342 342 342 342 343 343 343 343 343 342 343 343 343 343 343 343 343
Wind_Speed
27 25 24 27 28 28 28 28 29 29 29 28 27 26 25 24 23 23 22 20 18 19 19 17 18 17 16 15 14 15 15 16 16 16 17 16 15 13 12 10 8 5 3 2 2 2 1 2 5 6 4 3 3 6 8 1 5 9 11 8 9 11
28 27 24 25 25 27 28 28 26 26 26 26 25 24 24 24 22 21 21 19 19 19 18 17 18 18 16 15 14 15 15 15 15 16 16 16 15 13 12 10 8 6 4 4 4 4 2 0 2 4 3 5 4 4 5 2 3 9 12 8 9 10
27 29 28 26 24 26 29 28 27 25 24 24 24 23 23 23 21 19 19 19 20 19 18 18 19 19 17 15 15 15 15 15 15 15 16 15 15 13 12 10 8 6 5 6 6 5 4 4 4 0 3 5 4 3 2 3 3 8 10 6 8 9
28 31 31 28 26 27 29 28 27 26 24 26 26 24 23 23 21 19 19 20 20 19 18 18 18 18 18 16 15 16 16 15 15 15 15 14 14 12 11 9 8 7 6 7 7 7 10 10 9 6 2 4 3 3 4 2 4 9 9 6 7 8
30 33 31 30 28 27 29 28 27 26 26 28 27 24 24 23 22 21 21 19 19 19 19 19 19 19 18 16 15 17 17 15 15 15 15 14 12 11 10 9 7 7 8 8 9 11 13 9 7 7 4 2 2 4 4 2 5 7 8 7 7 7
33 33 30 29 30 29 30 30 28 28 27 29 28 26 25 25 23 24 22 20 19 21 21 20 21 20 19 16 14 17 18 16 15 14 15 13 10 10 9 8 8 8 8 8 11 12 7 4 4 7 8 3 1 3 4 6 5 6 5 6 7 6
34 32 31 29 30 32 32 31 30 29 28 28 29 28 26 26 25 24 23 22 21 22 23 22 21 21 19 17 15 17 17 16 15 13 14 13 9 8 9 8 10 11 9 8 11 8 3 3 3 7 10 3 1 2 2 6 7 5 4 6 7 5
36 35 34 32 31 33 33 31 31 31 29 28 30 29 26 26 26 25 24 23 23 24 24 23 23 23 20 19 16 16 17 15 15 13 13 13 11 11 11 9 12 15 12 10 10 6 4 7 5 4 6 3 3 1 3 3 4 3 4 5 5 5
37 37 36 34 33 34 33 32 33 33 30 30 30 29 28 26 26 26 26 24 24 25 24 24 26 24 21 20 18 16 17 15 15 14 14 13 13 14 13 11 13 12 10 9 9 7 5 6 6 5 5 5 3 2 2 2 2 2 4 4 3 5
38 39 37 36 34 34 34 33 35 34 32 32 31 30 29 27 28 28 27 25 24 26 25 24 26 26 22 22 20 18 18 17 16 16 17 15 12 13 12 12 11 9 9 9 9 8 6 5 7 8 7 5 2 1 1 3 3 1 4 3 3 5
37 39 37 36 34 35 35 34 36 35 34 34 31 31 31 28 28 28 29 26 25 27 24 24 27 27 24 22 22 20 19 19 17 17 17 16 14 12 12 12 10 8 11 11 7 4 3 4 8 11 11 7 2 0 2 4 3 1 4 5 4 4
37 40 38 35 33 35 34 33 36 36 35 35 32 32 31 30 29 28 30 28 26 27 23 24 27 27 25 23 22 21 21 19 18 17 14 14 15 12 10 12 10 9 11 11 7 4 3 5 9 12 13 11 6 3 2 4 5 0 3 4 4 1
30 31 31 31 33 35 33 32 35 35 35 36 33 33 32 29 29 28 30 30 27 27 23 23 27 28 26 24 22 21 22 19 17 17 13 13 15 12 9 10 11 9 9 9 8 5 5 8 10 10 10 9 7 7 3 4 8 2 2 2 3 2
27 30 30 29 31 35 31 30 33 32 34 37 33 32 31 29 29 28 30 31 29 27 24 23 28 29 26 25 23 22 22 18 16 16 15 14 13 13 13 10 9 10 8 9 9 8 10 11 10 11 10 7 3 7 6 4 8 4 2 1 3 3
35 40 42 37 35 38 33 29 31 30 31 35 33 30 29 29 29 27 29 32 30 28 25 24 28 29 26 26 24 23 22 19 17 16 15 17 13 12 15 12 9 10 11 11 11 11 13 13 11 12 10 5 1 5 7 5 8 6 4 3 2 3
40 44 45 36 31 36 35 31 29 28 29 31 30 28 28 28 27 26 28 32 32 27 25 25 28 29 26 26 24 23 23 19 19 18 16 19 17 14 14 13 12 11 12 12 11 12 14 14 11 11 9 5 2 4 6 5 7 6 4 4 2 2
40 43 35 23 19 22 27 33 31 26 29 30 28 26 27 28 25 26 28 32 32 27 24 25 27 28 25 25 24 23 23 21 20 20 17 17 19 18 14 13 13 12 12 12 12 13 14 13 11 8 7 6 6 6 6 5 5 6 4 5 3 2
26 27 25 19 19 19 18 26 29 28 30 29 28 26 26 28 25 25 28 32 32 26 25 25 26 28 26 23 24 23 23 22 21 21 19 16 16 18 16 15 15 13 13 12 12 15 16 9 5 5 6 5 6 6 6 6 6 5 4 3 3 3
17 16 27 24 18 23 24 21 18 22 31 29 26 27 27 28 27 25 27 30 31 27 26 26 26 29 28 24 23 24 23 22 22 21 20 18 15 17 17 16 16 15 15 15 13 15 15 11 4 4 5 5 6 6 6 8 7 6 5 3 4 5
21 19 30 26 12 12 21 25 16 14 25 28 26 28 28 28 29 27 27 29 32 30 26 26 27 28 29 25 22 23 24 23 23 21 21 20 17 18 18 17 17 16 15 16 15 15 13 10 8 7 7 8 10 10 10 10 8 7 5 4 6 7
25 27 31 30 20 11 12 23 22 17 22 27 27 28 29 29 30 28 28 30 32 31 27 26 28 28 28 26 22 23 24 24 23 22 22 22 19 18 19 18 17 16 15 15 14 15 13 10 8 7 8 10 12 13 14 12 9 7 6 5 6 6
25 32 35 37 35 25 23 27 29 30 29 29 29 28 28 29 30 28 28 30 31 31 28 27 28 28 28 27 24 23 23 23 23 22 22 22 20 18 20 19 17 16 15 15 14 14 14 10 7 7 8 6 8 11 14 13 10 7 6 7 9 7
26 33 36 38 38 33 33 32 30 33 32 31 30 28 27 27 28 27 27 29 31 31 28 27 28 27 27 27 26 24 22 23 24 23 22 22 21 19 20 20 18 18 16 14 14 13 14 13 9 8 7 4 2 4 6 8 8 9 9 8 11 11
27 32 35 40 41 35 32 29 25 25 24 26 29 27 24 25 26 26 27 27 30 32 29 27 27 27 27 26 27 25 22 23 24 24 23 23 22 20 20 21 19 19 17 15 15 14 15 14 11 7 3 2 3 2 1 4 7 10 12 10 11 15
28 31 36 41 42 35 31 27 24 21 14 11 19 26 24 24 26 27 27 27 31 34 29 28 27 26 27 25 26 25 22 23 24 23 23 23 23 21 20 21 20 20 19 17 15 15 16 16 14 12 7 3 1 1 1 2 4 7 12 12 9 14
28 31 36 41 41 35 28 24 25 27 18 11 15 22 25 27 27 28 29 26 30 33 29 28 28 25 25 24 26 25 22 23 24 23 23 23 23 22 20 21 21 21 21 19 15 11 13 18 15 13 12 8 5 3 1 1 1 2 9 11 8 10
30 31 36 41 39 34 27 18 19 26 28 27 20 19 21 29 29 28 30 28 29 32 29 28 29 26 24 24 27 26 21 23 24 23 24 23 23 24 22 20 20 21 20 18 17 12 8 14 16 12 13 11 9 7 5 4 2 1 2 5 7 9
31 30 37 39 34 35 33 22 16 18 22 26 25 19 16 23 30 29 29 29 30 31 30 28 28 27 24 24 27 26 22 23 24 23 24 24 23 23 23 21 20 21 19 17 18 16 11 11 14 14 13 12 11 9 8 7 7 5 2 1 4 6
31 29 35 38 35 39 41 32 26 25 23 23 27 25 17 16 23 29 27 27 29 30 29 28 28 27 25 24 26 26 23 24 25 25 26 25 23 23 23 21 20 20 20 18 17 16 15 13 11 11 12 13 12 10 8 9 10 9 5 2 2 2
29 28 32 39 41 42 41 37 34 33 31 27 27 29 23 19 19 24 26 26 28 29 29 29 29 29 27 26 26 26 25 25 25 25 26 26 24 23 22 21 20 19 19 18 16 15 14 14 11 9 10 11 11 10 8 7 9 10 7 5 4 2
27 28 31 36 43 43 41 39 36 32 32 32 31 30 29 27 24 23 26 27 28 29 29 30 31 31 29 28 27 27 26 26 26 26 26 27 26 24 23 21 19 19 18 16 16 16 14 14 12 11 10 10 9 10 8 6 7 8 6 4 3 3
26 29 29 31 41 43 38 37 36 33 32 32 34 33 29 28 29 27 27 28 28 28 28 29 30 31 30 29 28 29 28 27 27 27 28 27 26 24 23 21 19 18 19 17 16 16 15 14 14 12 12 11 10 10 9 9 9 5 4 3 2 2
26 30 29 28 37 41 37 37 37 33 32 32 33 35 32 29 30 30 29 28 27 28 28 28 30 30 31 31 30 30 30 30 30 30 29 28 27 25 23 22 21 19 19 19 17 16 15 14 14 13 12 11 12 11 10 11 10 6 4 3 1 1
26 29 31 29 34 39 38 39 37 30 28 30 31 32 33 31 30 30 30 30 29 29 30 31 32 32 33 33 31 32 32 31 30 31 30 29 27 25 24 22 22 20 19 19 18 17 16 14 14 13 12 12 12 12 11 11 10 7 5 3 2 1
26 27 32 32 35 41 42 41 42 39 34 32 30 30 32 32 31 31 32 33 33 32 32 33 34 33 34 35 34 32 32 30 29 30 31 30 27 26 25 23 21 20 19 18 18 17 16 15 14 13 13 13 12 12 12 10 8 7 5 4 3 1
25 28 35 36 36 42 45 44 46 46 44 39 34 30 30 31 32 33 34 35 35 34 32 32 34 34 35 37 35 33 32 30 29 30 31 30 28 27 26 24 21 21 20 19 18 17 16 14 14 14 13 13 13 12 10 9 8 7 6 5 3 2
25 30 37 39 38 41 46 47 45 44 44 42 39 35 33 33 34 34 35 35 35 34 33 33 33 34 36 38 36 33 33 31 29 30 31 31 29 27 26 25 22 21 21 20 18 18 17 15 14 14 14 14 14 13 11 10 9 8 6 5 4 4
Wind_Direction
165 166 168 165 167 174 177 176 174 174 174 175 175 173 170 169 170 171 171 169 169 166 167 166 157 158 161 163 171 177 181 180 180 183 185 188 188 188 189 195 199 195 190 191 204 197 153 68 54 49 58 47 18 9 10 0 154 121 130 127 63 61
167 166 168 165 165 175 178 176 175 172 172 174 173 170 168 168 168 169 171 169 168 168 170 167 158 161 163 164 173 180 183 183 183 186 190 194 196 198 200 205 203 200 210 209 219 222 211 114 82 71 40 20 14 11 22 21 142 119 122 105 56 56
170 165 169 168 164 174 177 175 176 173 171 172 171 168 167 167 167 168 172 171 169 172 175 169 164 165 164 167 177 181 183 183 185 190 193 198 200 205 208 208 205 208 220 225 235 238 242 252 243 218 6 355 7 6 326 322 38 108 121 87 58 56
172 168 169 167 164 173 174 173 175 173 172 172 171 169 168 166 166 170 173 174 172 175 177 170 166 163 161 170 180 180 183 185 188 192 195 199 202 206 209 208 210 218 230 238 239 257 271 262 249 248 307 3 7 329 308 289 68 102 119 92 70 61
172 171 170 166 165 171 170 171 173 173 174 172 171 170 169 167 168 173 174 175 175 177 177 171 168 160 160 172 181 183 184 187 190 194 196 197 202 205 207 209 220 233 235 241 251 272 288 277 251 245 242 39 356 304 341 53 101 113 116 93 73 61
172 173 172 168 167 171 170 170 171 172 174 172 171 170 171 169 172 176 174 175 178 181 177 173 170 161 160 169 180 186 184 188 192 197 198 195 200 207 211 215 227 244 241 245 264 272 292 310 296 285 268 242 290 313 2 21 62 122 120 84 76 64
170 173 174 172 171 173 171 170 171 172 174 173 171 170 173 172 174 180 175 171 180 186 177 174 172 163 162 167 177 187 184 188 192 197 202 194 193 215 223 222 223 234 243 252 266 265 258 272 279 309 313 307 300 343 51 14 30 105 121 84 83 71
170 172 175 175 173 175 174 171 171 172 175 175 171 171 176 174 176 182 177 170 181 186 177 175 173 166 166 167 174 182 181 187 189 194 208 197 190 214 222 226 229 230 237 250 259 256 249 268 257 267 314 317 268 317 75 31 24 93 102 88 93 89
172 174 177 176 174 176 176 171 171 173 177 177 172 172 176 176 177 182 181 175 183 187 178 177 175 169 168 168 172 176 178 187 188 193 210 201 194 212 216 225 236 231 233 248 261 264 257 279 286 260 261 272 273 318 30 33 27 122 101 83 118 116
175 176 180 178 174 176 176 173 172 173 178 178 174 175 177 177 177 181 184 179 183 188 180 176 176 172 170 169 171 174 178 187 191 197 208 203 199 213 214 223 236 230 231 239 252 265 258 262 281 272 259 258 258 295 325 35 22 146 124 109 143 120
177 178 182 181 176 175 178 177 174 173 177 178 175 176 178 178 177 181 183 178 184 190 182 175 175 173 172 171 170 174 180 188 195 200 205 198 198 214 213 220 231 224 237 250 263 282 282 276 287 288 287 280 239 81 29 26 12 87 116 115 136 123
182 182 182 180 175 175 181 179 175 174 176 177 176 176 177 178 178 182 182 177 185 192 185 176 174 175 174 171 171 174 181 190 196 201 201 187 196 216 210 213 225 224 240 264 289 329 335 300 295 301 311 322 339 31 45 351 348 122 156 138 138 133
185 186 184 180 176 177 183 180 176 176 176 176 177 175 176 178 178 182 182 177 186 194 188 176 173 175 174 172 172 173 181 190 193 197 196 183 196 214 206 209 221 226 242 263 275 291 298 287 285 285 290 298 330 16 44 342 347 2 165 156 165 263
189 188 188 183 178 180 184 180 177 179 177 174 175 175 175 178 179 183 182 178 186 192 187 177 173 175 173 171 174 174 179 186 187 193 196 189 196 204 202 209 219 225 237 251 258 266 266 262 267 272 278 273 291 6 22 352 334 329 315 289 171 239
194 190 188 186 180 180 183 180 179 180 176 173 172 174 176 177 179 183 182 180 185 191 187 177 172 175 175 173 175 175 177 182 186 190 195 194 195 192 199 209 216 225 232 236 240 251 257 253 260 273 297 345 48 339 348 331 319 319 299 272 193 244
200 194 189 190 183 178 179 178 179 180 175 172 171 173 176 177 179 181 182 182 184 192 190 176 172 174 171 171 173 173 177 182 186 188 191 195 195 188 196 212 217 226 235 239 236 239 249 241 244 265 279 324 336 314 325 318 316 325 322 299 271 242
201 198 193 196 194 182 178 175 178 182 175 172 171 174 176 176 179 178 181 183 184 192 190 176 174 173 165 169 175 175 178 182 185 188 188 194 201 198 201 216 217 222 231 245 249 251 260 240 220 244 256 277 291 281 288 296 306 307 311 311 276 209
194 197 195 198 196 189 183 177 180 178 172 172 172 174 175 176 179 178 181 184 183 189 190 178 175 175 168 169 176 177 179 181 183 186 186 191 202 202 206 216 215 215 220 231 246 258 279 275 211 232 247 254 274 267 272 280 287 291 285 281 257 242
188 193 197 200 196 188 181 180 189 175 167 172 175 174 176 177 181 180 182 185 183 186 191 183 176 176 173 170 173 177 180 183 184 185 187 191 198 197 202 212 208 210 218 222 233 247 271 290 268 257 254 248 265 264 270 272 269 276 275 254 256 261
194 198 199 201 212 210 183 173 187 188 172 175 179 179 178 180 183 181 182 185 183 184 190 187 179 177 175 171 171 176 180 184 185 185 187 191 196 195 200 207 203 207 218 220 227 235 250 269 260 261 269 261 263 264 265 266 263 258 250 228 239 257
192 197 197 199 208 229 197 173 175 189 186 182 183 181 179 182 183 181 182 183 181 182 189 189 181 179 177 174 171 174 179 182 184 188 190 193 194 194 200 203 200 205 214 215 221 227 235 246 240 251 271 260 255 259 259 254 249 244 231 195 192 234
188 193 194 198 201 197 190 185 179 180 185 187 188 183 178 180 182 181 181 183 181 181 190 191 182 179 179 177 173 172 179 183 183 187 192 194 192 194 199 199 198 203 208 213 218 223 227 228 214 227 251 254 255 260 254 242 231 223 220 190 169 189
185 191 192 195 198 196 191 191 186 182 183 186 187 184 179 177 179 180 178 181 183 180 188 192 183 178 179 180 175 171 179 183 181 184 189 189 189 194 197 195 198 201 203 210 218 222 220 215 210 223 239 236 243 266 242 218 215 212 209 194 165 160
187 192 194 194 196 199 198 195 192 191 194 188 180 179 179 176 177 180 176 177 181 181 185 190 187 183 180 182 179 174 178 181 181 184 186 184 186 192 194 194 197 200 202 206 213 219 214 210 214 221 246 245 209 235 189 176 216 221 206 201 172 150
193 196 197 197 196 196 196 199 198 198 211 203 182 177 175 176 177 181 180 176 180 183 184 186 188 186 181 183 183 180 182 183 183 185 185 184 186 190 193 194 196 199 203 206 208 211 206 206 214 221 232 271 257 219 168 168 230 226 197 196 186 157
195 200 200 198 196 193 193 200 198 191 188 185 201 196 179 174 178 182 184 180 179 183 186 186 186 185 181 184 187 184 185 186 185 185 185 185 188 192 193 194 197 201 206 210 217 219 203 199 205 218 224 239 262 250 275 290 287 226 189 190 195 175
194 198 202 199 192 189 191 199 200 194 182 171 193 219 192 175 177 183 184 182 180 182 186 187 185 185 184 186 190 188 187 188 187 187 185 186 191 194 195 196 200 204 207 212 222 235 219 190 191 209 223 230 245 246 255 273 280 306 189 194 196 191
194 195 200 197 189 190 195 196 196 204 196 176 182 213 218 188 176 178 182 182 182 183 186 187 184 185 186 188 190 188 188 189 189 190 189 190 193 195 196 199 202 203 205 210 213 222 225 198 190 202 215 221 233 239 243 254 261 260 262 256 202 186
189 191 195 192 190 195 198 194 187 195 206 197 185 190 222 230 185 174 180 181 180 183 188 187 184 184 184 187 188 187 190 191 190 192 193 194 195 196 198 200 204 201 201 206 205 206 215 218 213 208 205 208 216 225 236 250 252 246 240 248 255 178
182 184 192 194 196 198 196 192 187 191 195 194 189 182 195 226 205 177 180 183 182 185 188 187 185 185 184 187 189 190 193 192 191 193 195 197 195 196 199 200 205 203 197 200 201 201 208 218 226 225 213 207 208 208 217 242 238 227 225 226 244 265
180 180 188 194 200 200 194 190 188 192 192 186 188 185 183 199 202 186 183 186 186 187 189 188 187 186 185 187 189 191 194 193 192 196 198 198 196 194 197 199 202 204 200 199 202 205 210 215 221 226 224 219 219 218 217 239 243 221 213 216 234 262
184 179 181 188 198 198 191 189 190 192 193 186 186 187 186 192 194 189 186 186 187 188 191 191 187 186 187 187 188 190 195 194 193 199 201 199 197 194 196 200 199 200 202 202 201 204 209 215 219 220 222 221 222 229 230 240 260 257 222 222 263 297
190 179 179 183 192 193 188 190 193 191 190 187 186 188 190 194 192 189 188 186 187 188 191 193 189 189 188 187 188 190 195 197 194 198 202 199 197 195 196 198 199 199 199 200 200 203 208 215 219 218 219 221 221 227 230 234 250 261 240 244 269 295
195 179 178 181 184 188 189 191 193 193 192 191 190 189 191 196 193 188 187 189 192 191 191 193 191 190 189 187 189 192 196 198 195 197 200 200 196 193 194 195 197 199 198 200 202 203 210 215 220 221 219 219 221 225 228 231 238 238 226 236 244 214
197 179 176 178 181 187 190 191 192 193 197 199 196 193 193 197 195 190 188 191 196 195 192 194 193 190 188 188 190 193 196 197 197 199 199 198 195 191 191 192 194 197 197 200 203 204 210 213 218 223 221 221 223 223 226 227 227 224 212 213 233 227
195 176 174 178 182 190 191 192 194 192 195 198 196 194 195 198 198 194 192 193 197 197 194 194 193 191 189 189 190 192 195 196 198 202 201 198 195 190 189 190 191 195 196 199 203 204 208 212 217 224 223 223 223 222 224 223 219 217 211 209 216 202
189 169 175 182 186 193 193 193 194 193 195 197 194 193 195 199 200 198 196 195 197 198 196 194 193 191 190 189 189 190 192 195 199 202 203 199 195 191 189 189 190 194 195 197 202 205 207 211 218 224 224 222 220 219 219 220 222 217 207 205 198 183